Terminal Aerodrome Forecast
Issued by NWS Jacksonville, FL

Home | Current Version | Previous Version | Text Only | Print | Product List | Glossary On
Versions: 1 2 3 4 5 6 7 8 9 10 11 12 13 14 15 16 17 18 19 20 21
000
FTUS42 KJAX 210000 AAA
TAFJAX
TAF AMD
KJAX 210052Z 2101/2124 27003KT P6SM SCT150 BKN250
     FM210500 00000KT P6SM FEW250
     FM211500 28006KT P6SM FEW040
     FM212100 11009KT P6SM SCT050 SCT250=

USA.gov is the U.S. government's official web portal to all federal, state and local government web resources and services.